{"data":{"norad_id":66574,"epoch":"2026-09-20T10:49:51.197664Z","epoch_age_seconds":90825,"freshness":"FRESH","line1":"1 66574U 25268T   26263.45128701  .00009555  00000+0  35620-3 0  9990","line2":"2 66574  43.0011 327.3537 0001579 267.3196  92.7475 15.27586886 47747","mean_motion":15.27586886,"eccentricity":0.0001579,"inclination_deg":43.0011,"raan_deg":327.3537,"arg_perigee_deg":267.3196,"mean_anomaly_deg":92.7475,"bstar":0.0003562,"rev_number":4774,"period_min":94.266323781468,"perigee_km":481.94509892707,"apogee_km":484.11185498469,"semimajor_km":6861.1654769559,"source":"CELESTRAK","updated_at":"2026-09-21T09:00:35.973030Z"}}